Flag for Germany Weather past 2 weeks in Schwedt/Oder, Brandenburg, Germany

Now
55 °F

Passing clouds.


Feels Like: 55 °F
Forecast: 53 / 68 °F
Wind: 5 mph from West

Location: Szczecin Airport

Current Time: Sep 2, 2015 at 6:44:23 AM

Latest Report: Sep 2, 2015 at 6:00 AM


Visibility: N/A

Pressure: 29.89 "Hg

Humidity: 94%

Dew point: 54 °F

Location of Schwedt/OderLocation

Historic Weather in Schwedt/Oder — Graph

°F

Schwedt/Oder temperature yesterday

Maximum temperature yesterday: 84 °F (at 3:30 PM)
Minimum temperature yesterday: 63 °F (at 10:00 PM)
Average temperature yesterday: 74 °F

Past Weeks' High & Low Weather Summary

 TemperatureHumidityPressure
High91 °F (Aug 31, 3:00 PM)100% (Aug 28, 5:00 AM)30.36 "Hg (Aug 28, 5:00 AM)
Low50 °F (Aug 22, 4:30 AM)23% (Aug 19, 5:30 PM)29.68 "Hg (Sep 1, 2:30 AM)
Average68 °F59%30.03 "Hg
* Reported Aug 18 5:00 AM — Sep 2 5:00 AM, Schwedt/Oder, Weather by CustomWeather, © 2015

Note: Actual official high and low records may vary slightly from our data, if they occured in-between our weather recording intervals... More about our weather records

Advertising

Schwedt/Oder weather history for previous 24 hours

 ConditionsComfort  
Time TempWeatherWind HumidityBarometerVisibility
5:00 AM
Wed, Sep 2
55 °FClear.7 mph94%29.89 "Hg10 mi
4:30 AM57 °FClear.9 mph94%29.89 "Hg10 mi
4:00 AM57 °FClear.10 mph94%29.89 "Hg10 mi
3:30 AM57 °FClear.12 mph94%29.86 "Hg10 mi
3:00 AM57 °FClear.10 mph94%29.86 "Hg10 mi
2:30 AM59 °FPassing clouds.10 mph94%29.86 "HgN/A
2:00 AM59 °FPassing clouds.8 mph94%29.86 "HgN/A
1:30 AM61 °FPassing clouds.9 mph88%29.83 "HgN/A
1:00 AM61 °FPassing clouds.8 mph94%29.83 "HgN/A
11:30 PM
Tue, Sep 1
63 °FLight rain. Passing clouds.9 mph88%29.80 "HgN/A
11:00 PM63 °FLight rain. Passing clouds.7 mph94%29.80 "HgN/A
10:30 PM63 °FSprinkles. Partly cloudy.8 mph94%29.80 "HgN/A
10:00 PM63 °FThunderstorms. Partly cloudy.8 mph94%29.77 "HgN/A
9:30 PM64 °FThunderstorms. Passing clouds.9 mph88%29.80 "HgN/A
9:00 PM68 °FThunderstorms. Passing clouds.5 mph78%29.77 "HgN/A
8:30 PM68 °FPassing clouds.9 mph78%29.74 "HgN/A
8:00 PM70 °FPassing clouds.13 mph73%29.74 "HgN/A
7:30 PM73 °FPassing clouds.9 mph65%29.71 "HgN/A
7:00 PM75 °FPassing clouds.3 mph65%29.71 "HgN/A
6:30 PM77 °FPassing clouds.10 mph61%29.71 "HgN/A
6:00 PM79 °FPassing clouds.10 mph58%29.71 "HgN/A
5:30 PM82 °FPassing clouds.12 mph51%29.71 "HgN/A
5:00 PM82 °FPassing clouds.10 mph51%29.71 "HgN/A
4:30 PM82 °FPassing clouds.10 mph51%29.71 "HgN/A
4:00 PM82 °FScattered clouds.10 mph51%29.71 "HgN/A
3:30 PM84 °FScattered clouds.9 mph48%29.71 "HgN/A
3:00 PM82 °FScattered clouds.8 mph55%29.71 "HgN/A
2:30 PM81 °FScattered clouds.10 mph58%29.71 "HgN/A
2:00 PM81 °FScattered clouds.8 mph58%29.71 "HgN/A
1:30 PM82 °FScattered clouds.8 mph55%29.71 "HgN/A
1:00 PM81 °FScattered clouds.10 mph62%29.71 "HgN/A
12:30 PM81 °FPassing clouds.7 mph58%29.71 "HgN/A
12:00 PM81 °FPassing clouds.5 mph58%29.71 "HgN/A
11:30 AM81 °FPassing clouds.6 mph58%29.71 "HgN/A
11:00 AM79 °FPassing clouds.7 mph61%29.71 "HgN/A
10:30 AM77 °FPassing clouds.8 mph61%29.71 "HgN/A
10:00 AM77 °FSunny.12 mph65%29.71 "Hg10 mi
9:30 AM77 °FSunny.14 mph65%29.71 "Hg10 mi
9:00 AM75 °FSunny.8 mph69%29.71 "Hg10 mi
8:30 AM73 °FSunny.7 mph74%29.71 "Hg10 mi
8:00 AM72 °FSunny.5 mph73%29.68 "Hg10 mi
7:30 AM66 °FSunny.2 mph83%29.68 "Hg10 mi
7:00 AM66 °FClear.3 mph83%29.68 "Hg10 mi
Weather by CustomWeather, © 2015

See weather overviewHow to use our weather pages